REU106 FMEE-FIMP

Flight info

Callsign REU106
Flight time 0h 30m
Altitude 17000
Route EPTEK2J EPTEK EPTEK2E
Aircraft B77W/H-SDE1E2E3FGHIJ2J3J4J5M1RWXY/LB1D1

Departure

Time 2026-05-08 08:22
Airport Roland Garros Airport (FMEE)

Arrival

Time 2026-05-08 08:53
Airport Sir Seewoosagur Ramgoolam International Airport (FIMP)
Time Latitude Longitude Altitude Speed Heading
2026-05-08 08:07 -20.89098 55.51306 167 ft 0 kts 205°
2026-05-08 08:13 -20.89092 55.51309 167 ft 2 kts 224°
2026-05-08 08:13 -20.89082 55.51321 166 ft 2 kts 231°
2026-05-08 08:13 -20.89074 55.51334 166 ft 2 kts 240°
2026-05-08 08:13 -20.89067 55.51349 166 ft 2 kts 252°
2026-05-08 08:14 -20.89063 55.51364 166 ft 2 kts 263°
2026-05-08 08:14 -20.89063 55.51380 166 ft 2 kts 274°
2026-05-08 08:14 -20.89065 55.51396 166 ft 2 kts 285°
2026-05-08 08:14 -20.89070 55.51411 166 ft 2 kts 296°
2026-05-08 08:15 -20.89077 55.51426 166 ft 2 kts 299°
2026-05-08 08:15 -20.89084 55.51440 166 ft 2 kts 296°
2026-05-08 08:15 -20.89089 55.51451 166 ft 0 kts 295°
2026-05-08 08:17 -20.89086 55.51443 166 ft 4 kts 296°
2026-05-08 08:17 -20.89059 55.51386 166 ft 10 kts 297°
2026-05-08 08:18 -20.89026 55.51317 166 ft 10 kts 297°
2026-05-08 08:18 -20.88994 55.51249 166 ft 10 kts 297°
2026-05-08 08:18 -20.88950 55.51194 166 ft 9 kts 338°
2026-05-08 08:18 -20.88886 55.51170 166 ft 9 kts 341°
2026-05-08 08:19 -20.88823 55.51148 165 ft 9 kts 342°
2026-05-08 08:19 -20.88746 55.51122 165 ft 11 kts 339°
2026-05-08 08:19 -20.88710 55.51054 165 ft 11 kts 278°
2026-05-08 08:19 -20.88693 55.50950 165 ft 15 kts 281°
2026-05-08 08:20 -20.88673 55.50841 165 ft 14 kts 282°
2026-05-08 08:20 -20.88652 55.50738 166 ft 14 kts 282°
2026-05-08 08:20 -20.88632 55.50636 166 ft 13 kts 282°
2026-05-08 08:20 -20.88613 55.50556 166 ft 9 kts 299°
2026-05-08 08:21 -20.88579 55.50504 166 ft 4 kts 259°
2026-05-08 08:21 -20.88604 55.50510 166 ft 5 kts 106°
2026-05-08 08:21 -20.88624 55.50603 166 ft 37 kts 102°
2026-05-08 08:21 -20.88741 55.51179 165 ft 118 kts 102°
2026-05-08 08:22 -20.88958 55.52241 408 ft 161 kts 102°
2026-05-08 08:22 -20.89090 55.53409 1246 ft 163 kts 81°
2026-05-08 08:22 -20.88744 55.54575 1696 ft 177 kts 66°
2026-05-08 08:22 -20.88043 55.55754 1992 ft 199 kts 56°
2026-05-08 08:23 -20.87135 55.56972 2338 ft 218 kts 53°
2026-05-08 08:23 -20.86125 55.58244 2672 ft 236 kts 53°
2026-05-08 08:23 -20.85020 55.59671 2856 ft 254 kts 53°
2026-05-08 08:23 -20.83876 55.61151 3458 ft 264 kts 53°
2026-05-08 08:24 -20.82732 55.62625 4670 ft 259 kts 53°
2026-05-08 08:24 -20.81583 55.64112 5551 ft 265 kts 53°
2026-05-08 08:24 -20.80401 55.65639 6471 ft 269 kts 52°
2026-05-08 08:24 -20.79212 55.67175 7358 ft 273 kts 52°
2026-05-08 08:25 -20.77996 55.68740 8267 ft 277 kts 52°
2026-05-08 08:25 -20.76761 55.70329 9169 ft 283 kts 51°
2026-05-08 08:25 -20.75489 55.71960 10115 ft 289 kts 51°
2026-05-08 08:25 -20.74161 55.73666 10868 ft 306 kts 50°
2026-05-08 08:26 -20.72769 55.75463 11358 ft 327 kts 51°
2026-05-08 08:26 -20.71277 55.77387 11756 ft 346 kts 51°
2026-05-08 08:26 -20.69697 55.79424 12245 ft 362 kts 51°
2026-05-08 08:26 -20.68078 55.81516 13083 ft 366 kts 51°
2026-05-08 08:27 -20.66468 55.83588 14065 ft 368 kts 52°
2026-05-08 08:27 -20.64841 55.85681 14994 ft 374 kts 52°
2026-05-08 08:27 -20.63164 55.87838 15930 ft 379 kts 52°
2026-05-08 08:27 -20.61466 55.89996 16738 ft 382 kts 50°
2026-05-08 08:28 -20.59644 55.92080 17059 ft 384 kts 48°
2026-05-08 08:28 -20.57811 55.94138 17093 ft 382 kts 48°
2026-05-08 08:28 -20.55972 55.96209 17095 ft 381 kts 48°
2026-05-08 08:28 -20.54153 55.98260 17098 ft 380 kts 48°
2026-05-08 08:29 -20.52352 56.00296 17098 ft 379 kts 48°
2026-05-08 08:29 -20.50537 56.02352 17094 ft 379 kts 48°
2026-05-08 08:29 -20.48738 56.04390 17095 ft 379 kts 48°
2026-05-08 08:29 -20.46921 56.06450 17095 ft 379 kts 48°
2026-05-08 08:30 -20.45182 56.08525 17096 ft 379 kts 54°
2026-05-08 08:30 -20.43763 56.10926 17093 ft 377 kts 65°
2026-05-08 08:30 -20.42351 56.16242 17090 ft 376 kts 85°
2026-05-08 08:31 -20.42275 56.19021 17097 ft 377 kts 90°
2026-05-08 08:31 -20.42268 56.21800 17091 ft 376 kts 90°
2026-05-08 08:31 -20.42270 56.24570 17093 ft 375 kts 90°
2026-05-08 08:31 -20.42276 56.27375 17093 ft 376 kts 90°
2026-05-08 08:32 -20.42284 56.30150 17092 ft 376 kts 90°
2026-05-08 08:32 -20.42294 56.32920 17094 ft 376 kts 90°
2026-05-08 08:32 -20.42305 56.35729 17092 ft 376 kts 90°
2026-05-08 08:32 -20.42316 56.38491 17089 ft 376 kts 90°
2026-05-08 08:33 -20.42328 56.41293 17090 ft 375 kts 90°
2026-05-08 08:33 -20.42339 56.44051 17089 ft 377 kts 90°
2026-05-08 08:33 -20.42350 56.46864 17090 ft 376 kts 90°
2026-05-08 08:33 -20.42360 56.49393 17089 ft 376 kts 90°
2026-05-08 08:34 -20.42371 56.52172 17091 ft 377 kts 90°
2026-05-08 08:34 -20.42382 56.54954 17088 ft 377 kts 90°
2026-05-08 08:34 -20.42392 56.57738 17085 ft 376 kts 90°
2026-05-08 08:34 -20.42402 56.60539 17085 ft 378 kts 90°
2026-05-08 08:35 -20.42411 56.63319 17085 ft 377 kts 90°
2026-05-08 08:35 -20.42420 56.66120 17086 ft 378 kts 90°
2026-05-08 08:35 -20.42428 56.68862 16901 ft 367 kts 90°
2026-05-08 08:35 -20.42436 56.71571 16438 ft 364 kts 90°
2026-05-08 08:36 -20.42443 56.74283 15886 ft 364 kts 90°
2026-05-08 08:36 -20.42450 56.76954 15375 ft 362 kts 90°
2026-05-08 08:36 -20.42456 56.79631 14859 ft 360 kts 90°
2026-05-08 08:36 -20.42462 56.82273 14352 ft 358 kts 90°
2026-05-08 08:37 -20.42468 56.84938 13834 ft 356 kts 90°
2026-05-08 08:37 -20.42473 56.87527 13328 ft 354 kts 90°
2026-05-08 08:37 -20.42478 56.90170 12812 ft 352 kts 90°
2026-05-08 08:37 -20.42482 56.92735 12309 ft 350 kts 90°
2026-05-08 08:38 -20.42485 56.95317 11743 ft 350 kts 90°
2026-05-08 08:38 -20.42488 56.97939 11181 ft 349 kts 90°
2026-05-08 08:38 -20.42493 57.00513 10672 ft 347 kts 90°
2026-05-08 08:38 -20.42495 57.03054 10512 ft 333 kts 90°
2026-05-08 08:39 -20.42497 57.05442 10425 ft 319 kts 90°
2026-05-08 08:39 -20.42498 57.07770 10309 ft 307 kts 90°
2026-05-08 08:39 -20.42500 57.10009 10187 ft 295 kts 91°
2026-05-08 08:39 -20.42501 57.12141 10062 ft 285 kts 91°
2026-05-08 08:40 -20.42502 57.14235 9832 ft 280 kts 91°
2026-05-08 08:40 -20.42504 57.16313 9433 ft 281 kts 91°
2026-05-08 08:40 -20.42504 57.18382 9046 ft 281 kts 91°
2026-05-08 08:40 -20.42503 57.20464 8678 ft 280 kts 91°
2026-05-08 08:41 -20.42503 57.22512 8359 ft 278 kts 91°
2026-05-08 08:41 -20.42491 57.24571 8045 ft 274 kts 87°
2026-05-08 08:41 -20.41995 57.26512 7735 ft 273 kts 67°
2026-05-08 08:41 -20.41093 57.28279 7435 ft 271 kts 62°
2026-05-08 08:42 -20.40120 57.29993 7140 ft 268 kts 62°
2026-05-08 08:42 -20.39159 57.31667 6856 ft 265 kts 62°
2026-05-08 08:42 -20.38202 57.33344 6567 ft 263 kts 62°
2026-05-08 08:42 -20.37252 57.34992 6281 ft 260 kts 62°
2026-05-08 08:43 -20.36313 57.36623 5996 ft 258 kts 62°
2026-05-08 08:43 -20.35457 57.38291 5738 ft 252 kts 70°
2026-05-08 08:43 -20.34821 57.40037 5494 ft 248 kts 72°
2026-05-08 08:43 -20.34239 57.41741 5266 ft 243 kts 73°
2026-05-08 08:44 -20.33668 57.43419 5025 ft 238 kts 73°
2026-05-08 08:44 -20.33108 57.45066 4796 ft 233 kts 74°
2026-05-08 08:44 -20.32596 57.46646 4649 ft 226 kts 63°
2026-05-08 08:44 -20.31471 57.47802 4500 ft 224 kts 31°
2026-05-08 08:45 -20.29951 57.48106 4348 ft 225 kts 357°
2026-05-08 08:45 -20.28508 57.47474 4198 ft 230 kts 323°
2026-05-08 08:45 -20.27592 57.46090 4045 ft 232 kts 287°
2026-05-08 08:45 -20.27550 57.44445 4006 ft 219 kts 251°
2026-05-08 08:46 -20.28287 57.43118 4008 ft 202 kts 218°
2026-05-08 08:46 -20.29481 57.42395 4012 ft 193 kts 188°
2026-05-08 08:46 -20.30792 57.42361 4011 ft 185 kts 161°
2026-05-08 08:46 -20.31922 57.42939 4011 ft 179 kts 134°
2026-05-08 08:47 -20.32548 57.44036 4021 ft 176 kts 109°
2026-05-08 08:47 -20.32940 57.45276 4022 ft 176 kts 108°
2026-05-08 08:47 -20.33322 57.46499 4021 ft 175 kts 108°
2026-05-08 08:47 -20.33706 57.47732 4024 ft 175 kts 108°
2026-05-08 08:48 -20.34096 57.48980 4026 ft 175 kts 108°
2026-05-08 08:48 -20.34477 57.50206 4024 ft 176 kts 108°
2026-05-08 08:48 -20.34840 57.51478 3815 ft 180 kts 111°
2026-05-08 08:48 -20.35387 57.52666 3548 ft 180 kts 117°
2026-05-08 08:49 -20.35986 57.53850 3280 ft 181 kts 116°
2026-05-08 08:49 -20.36567 57.55043 3029 ft 182 kts 116°
2026-05-08 08:49 -20.37151 57.56249 2774 ft 184 kts 116°
2026-05-08 08:49 -20.37741 57.57466 2507 ft 185 kts 116°
2026-05-08 08:50 -20.38306 57.58631 2247 ft 172 kts 116°
2026-05-08 08:50 -20.38842 57.59735 1999 ft 162 kts 116°
2026-05-08 08:50 -20.39346 57.60776 1764 ft 153 kts 116°
2026-05-08 08:50 -20.39806 57.61726 1546 ft 137 kts 116°
2026-05-08 08:51 -20.40241 57.62624 1345 ft 134 kts 115°
2026-05-08 08:51 -20.40669 57.63507 1134 ft 137 kts 116°
2026-05-08 08:51 -20.41107 57.64415 911 ft 137 kts 116°
2026-05-08 08:51 -20.41543 57.65327 689 ft 139 kts 115°
2026-05-08 08:52 -20.41978 57.66251 472 ft 140 kts 116°
2026-05-08 08:52 -20.42425 57.67167 253 ft 139 kts 116°
2026-05-08 08:52 -20.42840 57.68028 196 ft 116 kts 116°
2026-05-08 08:52 -20.43152 57.68679 195 ft 81 kts 117°
2026-05-08 08:53 -20.43352 57.69093 195 ft 43 kts 117°
2026-05-08 08:53 -20.43449 57.69293 194 ft 18 kts 118°
2026-05-08 08:53 -20.43489 57.69369 194 ft 6 kts 134°
2026-05-08 08:53 -20.43534 57.69370 194 ft 6 kts 200°
2026-05-08 08:54 -20.43579 57.69348 194 ft 7 kts 208°
2026-05-08 08:54 -20.43624 57.69320 194 ft 7 kts 213°
2026-05-08 08:54 -20.43639 57.69279 194 ft 6 kts 291°
2026-05-08 08:54 -20.43612 57.69228 194 ft 10 kts 299°
2026-05-08 08:55 -20.43568 57.69143 195 ft 14 kts 296°
2026-05-08 08:55 -20.43526 57.69048 195 ft 14 kts 295°
2026-05-08 08:55 -20.43482 57.68956 195 ft 13 kts 297°
2026-05-08 08:55 -20.43439 57.68868 195 ft 13 kts 297°
2026-05-08 08:56 -20.43397 57.68783 195 ft 12 kts 297°
2026-05-08 08:56 -20.43355 57.68698 195 ft 12 kts 297°
2026-05-08 08:56 -20.43315 57.68616 195 ft 12 kts 297°
2026-05-08 08:56 -20.43272 57.68526 195 ft 15 kts 297°
2026-05-08 08:57 -20.43223 57.68426 195 ft 14 kts 297°
2026-05-08 08:57 -20.43177 57.68330 196 ft 14 kts 297°
2026-05-08 08:57 -20.43132 57.68236 196 ft 13 kts 297°
2026-05-08 08:57 -20.43097 57.68163 196 ft 9 kts 294°
2026-05-08 08:58 -20.43119 57.68112 196 ft 8 kts 206°
2026-05-08 08:58 -20.43161 57.68076 196 ft 7 kts 233°
2026-05-08 08:58 -20.43193 57.68028 196 ft 8 kts 237°
2026-05-08 08:58 -20.43215 57.67990 196 ft 3 kts 237°
2026-05-08 08:59 -20.43229 57.67968 196 ft 2 kts 237°
2026-05-08 08:59 -20.43233 57.67960 196 ft 0 kts 237°